Regional Weather Roundup
Issued by NWS Northern Indiana

Home | Current Version | Previous Version | Text Only | Print | Product List | Glossary On
Versions: 1 2 3 4 5 6 7 8 9 10 11 12 13 14 15 16 17 18 19 20 21 22 23 24 25 26 27 28 29 30 31 32 33 34 35 36 37 38 39 40 41 42 43 44 45 46 47 48 49 50
000
ASUS43 KIWX 241810
RWRIWX

KIWX WEATHER ROUNDUP
NATIONAL WEATHER SERVICE NORTHERN INDIANA
100 PM EST MON NOV 24 2014

NOTE: "FAIR" INDICATES FEW OR NO CLOUDS BELOW 12,000 FEET WITH NO
SIGNIFICANT WEATHER AND/OR OBSTRUCTIONS TO VISIBILITY.

* THESE STATIONS ARE NOT UNDER NWS QUALITY CONTROL. THEY ALSO MAY NOT
  REPORT WEATHER SUCH AS PRECIPITATION OR FOG.

INZ001>027-241900-
NORTHERN INDIANA

CITY           SKY/WX    TMP DP  RH WIND       PRES   REMARKS
GARY*          LGT SNOW  34  32  93 W29G46    29.36R WCI  20
VALPARAISO     LGT SNOW  34  33  96 SW26G40   29.40R FOG     WCI  21
6HR MIN TEMP:  32; 6HR MAX TEMP:  50; 6HR PCP:  0.24;

MICHIGAN CITY* LGT SNOW  32  32 100 SW18G29   29.35R WCI  20
LAPORTE*       LGT SNOW  35  35 100 W24G39    29.36R WCI  23
                                      6HR PCP:  0.07;

KNOX*          CLOUDY    35  32  90 W29G40    29.38R WCI  21
6HR MIN TEMP:   9; 6HR MAX TEMP:  81;

SOUTH BEND     MIX PCPN  35  32  88 SW30G41   29.33R WCI  22
6HR MIN TEMP:  35; 6HR MAX TEMP:  52; 6HR PCP:  0.27;

ELKHART*       DRIZZLE   36  32  87 SW24G37   29.33R
GOSHEN         CLOUDY    43  31  62 SW26G46   29.35R
6HR MIN TEMP:  38; 6HR MAX TEMP:  67; 6HR PCP:  0.16;

MONTICELLO*    CLOUDY    36  32  87 SW25G39   29.46R
6HR MIN TEMP:  35; 6HR MAX TEMP:  54; 6HR PCP:  0.03;

LOGANSPORT*    LGT RAIN  34  32  93 W30G45    29.47R WCI  20
ROCHESTER*     PTSUNNY   37  34  87 W21G37    29.42R
WARSAW*        CLOUDY    36  32  87 W25G39    29.38R
ANGOLA*        CLOUDY    39  30  70 SW31G41   29.30R
FORT WAYNE     CLOUDY    38  32  79 SW37G51   29.40R
6HR MIN TEMP:  38; 6HR MAX TEMP:  56; 6HR PCP:  0.18;

HUNTINGTON*    CLOUDY    37  32  85 W26G45    29.43R
PERU/GRISSOM   CLOUDY    37  37 100 SW30G37   29.45R
6HR MIN TEMP:  37; 6HR MAX TEMP:  55; 6HR PCP:  0.23;

MARION*          N/A     37  32  84 W26G36    29.50R
6HR MIN TEMP:   7; 6HR MAX TEMP:  64; 6HR PCP:  0.11;


$$
INZ028>050-241900-
CENTRAL INDIANA

CITY           SKY/WX    TMP DP  RH WIND       PRES   REMARKS
LAFAYETTE      CLOUDY    36  31  82 SW23G35   29.50R
6HR MIN TEMP:  35; 6HR MAX TEMP:  55; 6HR PCP:  0.01;

KOKOMO*        CLOUDY    37  32  81 W24G37    29.48R
6HR MIN TEMP:  37; 6HR MAX TEMP:  55;

MUNCIE*        CLOUDY    39  33  79 W23G40    29.50R
6HR MIN TEMP:  39; 6HR MAX TEMP:  58; 6HR PCP:  0.02;

INDIANAPOLIS   DRIZZLE   37  34  89 SW25G33   29.55R
6HR MIN TEMP:  37; 6HR MAX TEMP:  54; 6HR PCP:  0.01;


$$
MIZ043>046-050>051-056>058-064>065-071>073-077>080-241900-
SOUTHWEST LOWER MICHIGAN

CITY           SKY/WX    TMP DP  RH WIND       PRES   REMARKS
BATTLE CREEK   LGT RAIN  44  38  79 SW40G56   29.18R
6HR MIN TEMP:  44; 6HR MAX TEMP:  55; 6HR PCP:  0.52;

BENTON HARBOR  LGT SNOW  34  32  92 SW31G44   29.29R VSB 1   WCI  20
6HR MIN TEMP:  35; 6HR MAX TEMP:  49; 6HR PCP:  0.45;

COLDWATER*     LGT RAIN  41  38  87 SW28G44   29.25R
6HR MIN TEMP:  41; 6HR MAX TEMP:  56;

HILLSDALE*     CLOUDY    43  39  85 SW28G40   29.24R
HOLLAND        HVY RAIN  45  42  89 SW33      29.16R FOG
6HR MIN TEMP:  45; 6HR MAX TEMP:  50; 6HR PCP:  0.24;

GRAND RAPIDS   LGT RAIN  49  48  97 SW26G32   29.10R FOG
6HR MIN TEMP:  49; 6HR MAX TEMP:  50; 6HR PCP:  0.21;

KALAMAZOO      LGT RAIN  41  37  86 SW30G43   29.23R
6HR MIN TEMP:  41; 6HR MAX TEMP:  52; 6HR PCP:  0.31;

STURGIS*       CLOUDY    37  36  93 SW36G46   29.29R
THREE RIVERS*  LGT RAIN  39  36  89 SW15G38   29.27R
6HR MIN TEMP:  39; 6HR MAX TEMP:  54;


$$
OHZ001>008-015>018-024>025-241900-
NORTHWEST OHIO

CITY           SKY/WX    TMP DP  RH WIND       PRES   REMARKS
WAUSEON*       CLOUDY    43  41  93 SW31G49   29.29R FOG
FINDLAY        CLOUDY    47  41  80 SW32G48   29.36R
6HR MIN TEMP:  47; 6HR MAX TEMP:  61; 6HR PCP:  0.29;

TOLEDO EXPRESS CLOUDY    46  37  71 SW35G59   29.29R
6HR MIN TEMP:  46; 6HR MAX TEMP:  58; 6HR PCP:  0.13;

LIMA           CLOUDY    47  39  74 SW38G51   29.40R
6HR MIN TEMP:  47; 6HR MAX TEMP:  60; 6HR PCP:  0.48;


$$
AND FOR LAKE MICHIGAN COASTAL AND OPEN LAKE BUOY OBSERVATIONS

STATION/POSITION TEMP    WIND        PRES    VSBY  WAVE
                 AIR SEA DIR/SP/G                  HT/PER
                 (F)     (DEG/KT/KT) (MB)    (MI)  (FT/S)
CALUMET HARBOR    31     220/ 15/ 22  992.3R
MICHIGAN CITY     33     200/ 31/ 39   N/A
SAINT JOSEPH      36     200/ 34/ 43  991.5R
SOUTH LAKE BUOY   42 42  240/ 23/ 29  987.4R         3/ 4

$$
&&



USA.gov is the U.S. government's official web portal to all federal, state and local government web resources and services.